User: anonymous   Login
Location: Peterborough
(44.3091°N, 78.3197°W)
Time: 16:07:50
(UTC-04:00)
Language:

A-11 Canister half - Orbit

View from above orbital plane
View from above orbital plane
View from above satellite
View from above satellite

Ground track
Ground track

The orbit data is extracted from the following two-line orbital elements,

1 00053U 60009E   24205.58959805 -.00000074  00000-0  10309-3 0  9993
2 00053  47.2790 321.7873 0100763 185.3618 174.6097 12.17341370850937
Epoch (UTC): 23 July 2024 14:09:01
Eccentricity: 0.0100763
inclination: 47.2790°
perigee height: 1524 km
apogee height: 1684 km
right ascension of ascending node: 321.7873°
argument of perigee: 185.3618°
revolutions per day: 12.17341370
mean anomaly at epoch: 174.6097°
orbit number at epoch: 85093

The dashed part of the orbit path shows where the satellite is in the earth's shadow,  

DLR